When you browse on this site, cookies collect data to enhance your experience and personalize the content and advertising you see.
Visit our Privacy Policy to learn more. By continuing to use the site, you agree to this use of cookies and data.
  • In Austria
  • List of Countries
  • For 7 days
  • Water Temperature
  • Satellite Maps
  • Weather Map
  • News
  • Weather Widgets
  • user-avatar
    Login

    Hourly Weather Rosh Pina

    Today, 25 April, Thursday

    Time Temperature Precipitation Wind Pressure Humidity
    00:00 +16°C° 0 mm 2 mps 737 mmHg 52%
    01:00 +16°C° 0 mm 2 mps 737 mmHg 51%
    02:00 +16°C° 0 mm 2 mps 737 mmHg 51%
    03:00 +16°C° 0 mm 2 mps 737 mmHg 50%
    04:00 +15°C° 0 mm 2 mps 737 mmHg 49%
    05:00 +15°C° 0 mm 2 mps 737 mmHg 47%
    06:00 +18°C° 0 mm 2 mps 737 mmHg 44%
    07:00 +20°C° 0 mm 2 mps 737 mmHg 40%
    08:00 +23°C° 0 mm 2 mps 737 mmHg 35%
    09:00 +24°C° 0 mm 1 mps 737 mmHg 33%
    10:00 +26°C° 0 mm 1 mps 738 mmHg 30%
    11:00 +27°C° 0 mm 1 mps 738 mmHg 28%
    12:00 +27°C° 0 mm 2 mps 737 mmHg 29%
    13:00 +27°C° 0 mm 2 mps 737 mmHg 30%
    14:00 +28°C° 0 mm 3 mps 736 mmHg 31%
    15:00 +27°C° 0 mm 3 mps 736 mmHg 35%
    16:00 +26°C° 0 mm 3 mps 736 mmHg 39%
    17:00 +25°C° 0 mm 3 mps 735 mmHg 44%
    18:00 +22°C° 0 mm 3 mps 735 mmHg 47%
    19:00 +20°C° 0 mm 2 mps 735 mmHg 51%
    20:00 +18°C° 0 mm 2 mps 735 mmHg 55%
    21:00 +17°C° 0 mm 2 mps 735 mmHg 54%
    22:00 +17°C° 0 mm 2 mps 735 mmHg 53%
    23:00 +17°C° 0 mm 2 mps 735 mmHg 51%

    Tomorrow, 26 April, Friday

    Time Temperature Precipitation Wind Pressure Humidity
    00:00 +17°C° 0 mm 2 mps 735 mmHg 50%
    01:00 +17°C° 0 mm 2 mps 735 mmHg 48%
    02:00 +17°C° 0 mm 2 mps 735 mmHg 46%
    03:00 +16°C° 0 mm 2 mps 735 mmHg 45%
    04:00 +16°C° 0 mm 2 mps 735 mmHg 45%
    05:00 +16°C° 0 mm 2 mps 734 mmHg 44%
    06:00 +18°C° 0 mm 2 mps 735 mmHg 41%
    07:00 +21°C° 0 mm 2 mps 735 mmHg 38%
    08:00 +24°C° 0 mm 3 mps 735 mmHg 34%
    09:00 +25°C° 0 mm 2 mps 735 mmHg 32%
    10:00 +26°C° 0 mm 2 mps 735 mmHg 29%
    11:00 +28°C° 0 mm 1 mps 735 mmHg 27%
    12:00 +28°C° 0 mm 2 mps 735 mmHg 28%
    13:00 +28°C° 0 mm 2 mps 734 mmHg 28%
    14:00 +28°C° 0 mm 3 mps 734 mmHg 29%
    15:00 +27°C° 0 mm 3 mps 733 mmHg 33%
    16:00 +26°C° 0 mm 3 mps 733 mmHg 38%
    17:00 +25°C° 0 mm 3 mps 733 mmHg 42%
    18:00 +22°C° 0 mm 3 mps 733 mmHg 44%
    19:00 +21°C° 0 mm 2 mps 733 mmHg 46%
    20:00 +19°C° 0 mm 2 mps 732 mmHg 48%
    21:00 +19°C° 0 mm 2 mps 732 mmHg 47%
    22:00 +20°C° 0 mm 1 mps 732 mmHg 46%
    23:00 +20°C° 0 mm 1 mps 732 mmHg 45%

    Day after tomorrow, 27 April, Saturday

    Time Temperature Precipitation Wind Pressure Humidity
    00:00 +19°C° 0 mm 1 mps 732 mmHg 44%
    01:00 +19°C° 0 mm 1 mps 732 mmHg 43%
    02:00 +19°C° 0 mm 1 mps 732 mmHg 41%
    03:00 +18°C° 0 mm 1 mps 732 mmHg 39%
    04:00 +17°C° 0 mm 2 mps 732 mmHg 36%
    05:00 +17°C° 0 mm 2 mps 731 mmHg 34%
    06:00 +19°C° 0 mm 2 mps 732 mmHg 32%
    07:00 +23°C° 0 mm 2 mps 732 mmHg 30%
    08:00 +25°C° 0 mm 2 mps 732 mmHg 28%
    09:00 +26°C° 0 mm 2 mps 733 mmHg 26%
    10:00 +28°C° 0 mm 3 mps 733 mmHg 24%
    11:00 +29°C° 0 mm 3 mps 733 mmHg 21%
    12:00 +29°C° 0 mm 3 mps 732 mmHg 22%
    13:00 +29°C° 0 mm 3 mps 732 mmHg 23%
    14:00 +30°C° 0 mm 2 mps 731 mmHg 24%
    15:00 +28°C° 0 mm 3 mps 731 mmHg 29%
    16:00 +27°C° 0 mm 3 mps 731 mmHg 35%
    17:00 +26°C° 0 mm 3 mps 731 mmHg 40%
    18:00 +24°C° 0 mm 2 mps 731 mmHg 42%
    19:00 +21°C° 0 mm 2 mps 731 mmHg 45%
    20:00 +20°C° 0 mm 2 mps 731 mmHg 48%
    21:00 +20°C° 0 mm 1 mps 731 mmHg 47%
    22:00 +20°C° 0 mm 1 mps 731 mmHg 46%
    23:00 +20°C° 0 mm 1 mps 731 mmHg 45%

    28 April, Sunday

    Time Temperature Precipitation Wind Pressure Humidity
    00:00 +19°C° 0 mm 1 mps 731 mmHg 45%
    01:00 +19°C° 0 mm 1 mps 731 mmHg 46%
    02:00 +19°C° 0 mm 1 mps 731 mmHg 46%
    03:00 +18°C° 0 mm 1 mps 731 mmHg 45%
    04:00 +18°C° 0 mm 1 mps 731 mmHg 45%
    05:00 +18°C° 0 mm 1 mps 731 mmHg 44%
    06:00 +20°C° 0 mm 1 mps 731 mmHg 40%
    07:00 +22°C° 0 mm 1 mps 732 mmHg 37%
    08:00 +25°C° 0 mm 1 mps 732 mmHg 33%
    09:00 +26°C° 0 mm 1 mps 732 mmHg 31%
    10:00 +27°C° 0 mm 2 mps 732 mmHg 30%
    11:00 +29°C° 0 mm 2 mps 733 mmHg 29%
    12:00 +29°C° 0 mm 3 mps 732 mmHg 31%
    13:00 +29°C° 0 mm 3 mps 732 mmHg 33%
    14:00 +29°C° 0 mm 3 mps 731 mmHg 36%
    15:00 +28°C° 0 mm 3 mps 731 mmHg 39%
    16:00 +27°C° 0 mm 3 mps 731 mmHg 42%
    17:00 +26°C° 0 mm 2 mps 731 mmHg 45%
    18:00 +24°C° 0 mm 2 mps 731 mmHg 51%
    19:00 +22°C° 0 mm 1 mps 731 mmHg 57%
    20:00 +20°C° 0 mm 1 mps 731 mmHg 63%
    21:00 +20°C° 0 mm 1 mps 731 mmHg 61%
    22:00 +19°C° 0 mm 1 mps 731 mmHg 59%
    23:00 +19°C° 0 mm 1 mps 731 mmHg 57%

    29 April, Monday

    Time Temperature Precipitation Wind Pressure Humidity
    00:00 +19°C° 0 mm 1 mps 731 mmHg 54%
    01:00 +19°C° 0 mm 1 mps 730 mmHg 52%
    02:00 +19°C° 0 mm 1 mps 730 mmHg 49%
    03:00 +19°C° 0 mm 1 mps 730 mmHg 47%
    04:00 +18°C° 0 mm 1 mps 730 mmHg 44%
    05:00 +18°C° 0 mm 1 mps 730 mmHg 42%
    06:00 +21°C° 0 mm 1 mps 731 mmHg 37%
    07:00 +24°C° 0 mm 1 mps 731 mmHg 33%
    08:00 +26°C° 0 mm 1 mps 732 mmHg 29%
    09:00 +28°C° 0 mm 1 mps 732 mmHg 27%
    10:00 +29°C° 0 mm 1 mps 732 mmHg 25%
    11:00 +31°C° 0 mm 1 mps 732 mmHg 23%
    12:00 +31°C° 0 mm 2 mps 732 mmHg 23%
    13:00 +31°C° 0 mm 3 mps 731 mmHg 23%
    14:00 +33°C° 0 mm 3 mps 731 mmHg 23%
    15:00 +31°C° 0 mm 3 mps 731 mmHg 27%
    16:00 +30°C° 0 mm 3 mps 730 mmHg 30%
    17:00 +29°C° 0 mm 3 mps 730 mmHg 33%
    18:00 +26°C° 0 mm 2 mps 730 mmHg 37%
    19:00 +24°C° 0 mm 1 mps 731 mmHg 41%
    20:00 +22°C° 0 mm 1 mps 731 mmHg 44%
    21:00 +21°C° 0 mm 1 mps 731 mmHg 46%
    22:00 +21°C° 0 mm 1 mps 731 mmHg 47%
    23:00 +20°C° 0 mm 1 mps 731 mmHg 48%

    30 April, Tuesday

    Time Temperature Precipitation Wind Pressure Humidity
    00:00 +19°C° 0 mm 1 mps 731 mmHg 50%
    01:00 +19°C° 0 mm 1 mps 731 mmHg 52%
    02:00 +18°C° 0 mm 1 mps 730 mmHg 55%
    03:00 +18°C° 0 mm 1 mps 731 mmHg 58%
    04:00 +16°C° 0 mm 1 mps 731 mmHg 62%
    05:00 +15°C° 0 mm 1 mps 731 mmHg 66%
    06:00 +18°C° 0 mm 1 mps 731 mmHg 63%
    07:00 +19°C° 0 mm 2 mps 732 mmHg 60%
    08:00 +21°C° 0 mm 2 mps 732 mmHg 56%
    09:00 +23°C° 0 mm 2 mps 732 mmHg 52%
    10:00 +25°C° 0 mm 3 mps 732 mmHg 48%
    11:00 +26°C° 0 mm 3 mps 732 mmHg 44%
    12:00 +26°C° 0 mm 4 mps 732 mmHg 45%
    13:00 +26°C° 0 mm 4 mps 731 mmHg 46%
    14:00 +26°C° 0 mm 5 mps 731 mmHg 48%
    15:00 +25°C° 0 mm 4 mps 731 mmHg 52%
    16:00 +23°C° 0 mm 4 mps 731 mmHg 55%
    17:00 +22°C° 0 mm 3 mps 731 mmHg 59%
    18:00 +20°C° 0 mm 2 mps 731 mmHg 66%
    19:00 +18°C° 0 mm 2 mps 731 mmHg 73%
    20:00 +18°C° 0 mm 1 mps 731 mmHg 81%
    21:00 +16°C° 0 mm 1 mps 731 mmHg 81%
    22:00 +16°C° 0 mm 1 mps 731 mmHg 82%
    23:00 +15°C° 0 mm 1 mps 731 mmHg 83%
    Show more